Regional Weather Roundup
Issued by NWS

Home | Current Version | Previous Version | Graphics & Text | Print | Product List | Glossary On
Versions: 1 2 3 4 5 6 7 8 9 10 11 12 13 14 15 16 17 18 19 20 21 22 23 24 25 26 27 28 29 30 31 32 33 34 35 36 37 38 39 40 41 42 43 44 45 46 47 48 49 50
000
ASUS43 KLOT 031412
RWRIL

ILLINOIS REGIONAL WEATHER ROUNDUP
NATIONAL WEATHER SERVICE CHICAGO/ROMEOVILLE IL
900 AM CDT SUN MAY 03 2015

NOTE: "FAIR" INDICATES FEW OR NO CLOUDS BELOW 12,000 FEET WITH NO
SIGNIFICANT WEATHER AND/OR OBSTRUCTIONS TO VISIBILITY.

* THESE STATIONS ARE NOT UNDER NWS QUALITY CONTROL. THEY ALSO MAY NOT
  REPORT WEATHER SUCH AS PRECIPITATION OR FOG.

ILZ001-002-007-009-015-016-024-031500-
NORTHWEST ILLINOIS

CITY           SKY/WX    TMP DP  RH WIND       PRES   REMARKS
MOLINE         LGT RAIN  61  51  70 S6        29.92F
STERLING*      PTSUNNY   66  50  55 SW3       29.96R
SAVANNA*       CLOUDY    64  52  63 S12       29.92R
$$

ILZ003-004-008-010-011-017-018-031500-
NORTH CENTRAL ILLINOIS

CITY           SKY/WX    TMP DP  RH WIND       PRES   REMARKS
ROCKFORD       CLOUDY    66  47  50 S13       29.96S
FREEPORT*      CLOUDY    64  49  59 S15       29.94S
ROCHELLE*      PTSUNNY   66  47  49 S18       29.96S
DE KALB*       PTSUNNY   64  46  53 S15       29.98R
PERU*          CLOUDY    62  47  57 S7        29.98S
$$

ILZ005-006-012>014-019>023-031500-
NORTHEAST ILLINOIS

CITY           SKY/WX    TMP DP  RH WIND       PRES   REMARKS
CHICAGO-OHARE  PTSUNNY   67  43  41 SW12      29.97S
CHICAGO-MIDWAY PTSUNNY   69  45  41 S9        29.98S
AURORA         PTSUNNY   66  47  50 S12       29.98S
LANSING*       PTSUNNY   67  43  41 S14       30.00F
JOLIET*        CLOUDY    67  48  50 SW9       29.99S
WAUKEGAN       MOSUNNY   69  46  43 S10       29.95F
DUPAGE AIRPORT PTSUNNY   65  47  52 S13       29.97S
KANKAKEE*      CLOUDY    67  48  51 S15       30.02S
WHEELING       MOSUNNY   68  44  42 S13       29.98S
MORRIS*        CLOUDY    67  47  49 S10       29.97R
ROMEOVILLE*    PTSUNNY   66  45  46 SW12      29.99R
NORTHERLY ISL    N/A     67  42  40 S13         N/A
$$

LMZ740>746-031500-
SOUTHERN LAKE MICHIGAN

STATION/POSITION SKY/WX   TEMP    WIND        PRES    VSBY  WAVE
                          AIR SEA DIR/SP/G                  HT/PER
                          (F)     (DEG/KT/KT) (MB)    (MI)  (FT/S)
HARRISON CRIB              62     180/ 14/ 16   N/A
BURNHAM HARBOR             67     210/ 11/ 13   N/A
CALUMET HARBOR             63     180/  5/ 10   N/A
BURNS HARBOR               65     190/ 12/ 17 1016.6S
MICHIGAN CITY              63     160/ 11/ 15   N/A
MICHIGAN CITY 6N           59 50  200/  8/ 12   N/A           1
ST. JOSEPH                 57 48  210/  6/  8   N/A           1
$$

ILZ025>027-034>036-040-047-049-050-058-095>099-031500-
WEST-CENTRAL ILLINOIS

CITY           SKY/WX    TMP DP  RH WIND       PRES   REMARKS
QUINCY         MOSUNNY   67  50  54 S15       29.97S
GALESBURG*     PTSUNNY   65  51  61 S10       29.95F
MACOMB*        CLOUDY    67  49  51 S15       29.98S
JACKSONVILLE*  MOSUNNY   71  48  43 S12G17    30.00R
PITTSFIELD*    MOSUNNY   68  50  52 SW10      30.00S
$$

ILZ028>032-037-038-041>044-048-051>054-059>061-031500-
CENTRAL ILLINOIS

CITY           SKY/WX    TMP DP  RH WIND       PRES   REMARKS
PONTIAC        CLOUDY    67  49  51 S14       30.00S
BLOOMINGTON    CLOUDY    69  48  46 S17       30.02S
DECATUR        MOSUNNY   69  47  45 S12       30.04R
PEORIA         CLOUDY    66  48  52 S10       29.99R
LACON*         CLOUDY    64  45  49 S8        29.97S
LINCOLN*       PTSUNNY   70  45  40 S10G17    29.99S
SPRINGFIELD    PTSUNNY   69  48  47 S13       30.01R
TAYLORVILLE    MOSUNNY   68  46  45 S13       30.03R
$$

ILZ033-039-045-046-055>057-062-063-031500-
EAST-CENTRAL ILLINOIS

CITY           SKY/WX    TMP DP  RH WIND       PRES   REMARKS
CHAMPAIGN      MOSUNNY   72  43  35 S15       30.04R
DANVILLE*      MOSUNNY   68  49  50 S12       30.03S
RANTOUL*       PTSUNNY   73  46  38 S12G17    30.03S
MATTOON        MOSUNNY   67  48  50 S8        30.05S
PARIS*         SUNNY     70  50  48 S13       30.07S
$$

ILZ079-100>102-031500-
SOUTHWEST ILLINOIS

CITY           SKY/WX    TMP DP  RH WIND       PRES   REMARKS
ALTON          MOSUNNY   66 N/A N/A S12       30.04R
BELLEVILLE     MOSUNNY   68  51  54 VRB5      30.04R
CAHOKIA*       MOSUNNY   70  47  43 S9        30.04R
SPARTA*        MOSUNNY   65  48  54 S8        30.07R
$$

ILZ064>066-069>071-074>076-080>082-084>086-088>090-092>094-031500-
SOUTH-CENTRAL ILLINOIS

CITY           SKY/WX    TMP DP  RH WIND       PRES   REMARKS
CARBONDALE     SUNNY     67  49  52 S9        30.08R
CAIRO*         MOSUNNY   67  51  56 S3        30.10R
EFFINGHAM*     SUNNY     69  43  38 SE7       30.08R
MT. VERNON     SUNNY     66  52  59 S9        30.09R
CENTRALIA*     SUNNY     71  46  40 S10       30.07R
SALEM*         SUNNY     70  47  44 S9        30.07S
METROPOLIS*    SUNNY     66  53  62 S3        30.10R
$$

ILZ067-068-072-073-078-083-087-091-031500-
SOUTHEAST ILLINOIS

CITY           SKY/WX    TMP DP  RH WIND       PRES   REMARKS
LAWRENCEVILLE  MOSUNNY   68  52  56 S10       30.09R
FLORA*         MOSUNNY   65  51  58 S8        30.08S
FAIRFIELD*     SUNNY     67  50  53 S8        30.08R
HARRISBURG*    SUNNY     65  51  60 CALM      30.10S
ROBINSON*      MOSUNNY   68  49  49 S9        30.09S
CARMI*         MOSUNNY   66  49  52 S7        30.09S
$$

ABBREVIATIONS USED IN REMARKS
   TC - TEMPERATURE IN CELSIUS
  WCI - WIND CHILL INDEX
   HX - HEAT INDEX
  VSB - VISIBILITY
$$



USA.gov is the U.S. government's official web portal to all federal, state and local government web resources and services.